Regional Weather Roundup
Issued by NWS

Home | Current Version | Previous Version | Graphics & Text | Print | Product List | Glossary On
Versions: 1 2 3 4 5 6 7 8 9 10 11 12 13 14 15 16 17 18 19 20 21 22 23 24 25 26 27 28 29 30 31 32 33 34 35 36 37 38 39 40 41 42 43 44 45 46 47 48 49 50
000
ASUS43 KDTX 260001
RWRMI
MICHIGAN HOURLY REGIONAL WEATHER ROUNDUP
NATIONAL WEATHER SERVICE DETROIT/PONTIAC MI
700 PM EST THU DEC 25 2014

NOTE: "FAIR" INDICATES FEW OR NO CLOUDS BELOW 12,000 FEET WITH NO
SIGNIFICANT WEATHER AND/OR OBSTRUCTION TO VISIBILITY.

MIZ047>049-052>055-059>063-066>070-074>076-081>083-260100-
SOUTHEAST LOWER MICHIGAN

CITY           SKY/WX    TMP DP  RH WIND       PRES   REMARKS
ADRIAN         MOCLDY    35  29  78 SW10      30.10R WCI  27
6HR MIN TEMP:  35; 6HR MAX TEMP:  37;

ALMA           PTCLDY    33  30  89 SW7       30.02R WCI  27
ANN ARBOR      PTCLDY    35  29  78 SW8       30.08R WCI  29
BAD AXE        CLOUDY    35  32  88 SW10      30.00S WCI  27
6HR MIN TEMP:  35; 6HR MAX TEMP:  38;

CARO           PTCLDY    34  29  83 SW8       30.01S WCI  27
DETROIT CITY   CLOUDY    39  28  64 SW12      30.08S WCI  32
6HR MIN TEMP:  39; 6HR MAX TEMP:  41;

DETROIT        CLOUDY    37  30  75 S12       30.09R WCI  29
6HR MIN TEMP:  37; 6HR MAX TEMP:  39;

FLINT          MOCLDY    36  28  73 SW8       30.04R WCI  30
6HR MIN TEMP:  36; 6HR MAX TEMP:  39;

GROSSE ILE     CLOUDY    37  30  75 SW7       30.08S WCI  32
HILLSDALE      MOCLDY    35  31  84 SW7       30.07R WCI  29
6HR MIN TEMP:  35; 6HR MAX TEMP:  36;

HOWELL         PTCLDY    33  29  85 SW8       30.05R WCI  26
6HR MIN TEMP:  33; 6HR MAX TEMP:  36;


CITY           SKY/WX    TMP DP  RH WIND       PRES   REMARKS
JACKSON        PTCLDY    34  28  79 SW9       30.06R WCI  27
6HR MIN TEMP:  34; 6HR MAX TEMP:  36;

LAMBERTVILLE   CLOUDY    37  32  81 SW7       30.12R WCI  32
LANSING        PTCLDY    33  28  81 S8        30.04R WCI  26
6HR MIN TEMP:  33; 6HR MAX TEMP:  36;

LAPEER         FAIR      34  29  83 SW7       30.03S WCI  28
MASON          PTCLDY    32  28  85 CALM      30.05R
6HR MIN TEMP:  32; 6HR MAX TEMP:  35;

MONROE         CLOUDY    37  30  75 SW9       30.09R WCI  31
PONTIAC        MOCLDY    35  27  72 SW8       30.04S WCI  29
6HR MIN TEMP:  35; 6HR MAX TEMP:  37;

PORT HOPE        N/A     37  29  72 SW13G20   29.96R WCI  29
6HR MIN TEMP:  37; 6HR MAX TEMP:  39;

PORT HURON     CLOUDY    36  30  80 SW7       30.06S WCI  30
TRI CITIES     PTCLDY    36  29  75 SW9       30.01R WCI  29
6HR MIN TEMP:  36; 6HR MAX TEMP:  38;

TROY           CLOUDY    38  30  70 SW7       30.07F WCI  33
SAGINAW HB     PTCLDY    34  32  93 SW10      30.01R WCI  26
$$
MIZ043>046-050>051-056>058-064>065-071>073-077>080-260100-
SOUTHWEST LOWER MICHIGAN

CITY           SKY/WX    TMP DP  RH WIND       PRES   REMARKS
BATTLE CREEK   CLEAR     34  28  79 S7        30.06R WCI  28
6HR MIN TEMP:  34; 6HR MAX TEMP:  38;

BENTON HARBOR  PTCLDY    35  31  85 S9        30.04R WCI  28
6HR MIN TEMP:  35; 6HR MAX TEMP:  39;

BIG RAPIDS     CLOUDY    35  32  89 SW6       29.97R WCI  30
6HR MIN TEMP:  35; 6HR MAX TEMP:  35;

COLDWATER      PTCLDY    34  30  85 MISG      30.07R
6HR MIN TEMP:  34; 6HR MAX TEMP:  36;

FREMONT        CLOUDY    35  32  90 SW10      29.99R WCI  27
HOLLAND        PTCLDY    36  29  75 S9        30.01S WCI  29
6HR MIN TEMP:  36; 6HR MAX TEMP:  40;

GRAND RAPIDS   PTCLDY    32  28  85 S8        30.02R WCI  25
6HR MIN TEMP:  32; 6HR MAX TEMP:  37;

IONIA          FAIR      34  30  86 SW10      30.01S WCI  26
KALAMAZOO      PTCLDY    34  29  82 S12       30.06R WCI  25
6HR MIN TEMP:  33; 6HR MAX TEMP:  38;

LUDINGTON      CLOUDY    41  36  81 SW14G21   29.96R
MARSHALL       PTCLDY    33  29  85 S6        30.06R WCI  27
MOUNT PLEASANT MOCLDY    35  30  82 SW8       29.99R WCI  28
6HR MIN TEMP:  34; 6HR MAX TEMP:  37;

MUSKEGON       MOCLDY    39  32  76 S13       30.00S WCI  31
6HR MIN TEMP:  37; 6HR MAX TEMP:  39;

SOUTH HAVEN    PTCLDY    36  30  80 S6        30.03R WCI  31
$$
MIZ016>042-260100-
NORTHERN LOWER MICHIGAN

CITY           SKY/WX    TMP DP  RH WIND       PRES   REMARKS
ALPENA         CLOUDY    35  30  82 SW6       29.93R WCI  30
6HR MIN TEMP:  35; 6HR MAX TEMP:  37;

BEAVER ISLAND  CLOUDY    37  32  84 SW14G20   29.89R WCI  28
6HR MIN TEMP:  36; 6HR MAX TEMP:  37;

BELLAIRE       CLOUDY    36  30  78 S8        29.93R WCI  30
6HR MIN TEMP:  36; 6HR MAX TEMP:  38;

CADILLAC       CLOUDY    32  30  92 SW15      29.92R WCI  22
CHARLEVOIX     CLOUDY    36  31  83 SW9G16    29.94R WCI  29
6HR MIN TEMP:  35; 6HR MAX TEMP:  37;

FRANKFORT      CLOUDY    38  33  84 SW7G22    29.93R WCI  32
GAYLORD        CLOUDY    32  29  88 SW10      29.89R WCI  24
6HR MIN TEMP:  32; 6HR MAX TEMP:  34;

GRAYLING       MOCLDY    33  29  87 SW5       29.93R WCI  28
6HR MIN TEMP:  33; 6HR MAX TEMP:  36;

HARBOR SPRINGS CLOUDY    36  31  83 SW13      29.90R WCI  27
HOUGHTON LAKE  CLOUDY    33  28  81 SW9       29.94R WCI  25
6HR MIN TEMP:  33; 6HR MAX TEMP:  34;

MANISTEE       CLOUDY    37  30  75 SW7       29.96R WCI  32
OSCODA         CLOUDY    36  31  82 SW10G16   29.95R WCI  28
PELLSTON       CLOUDY    36  30  79 SW8       29.90R WCI  30
6HR MIN TEMP:  36; 6HR MAX TEMP:  37;

ROGERS CITY    CLOUDY    35  32  88 SW7       29.91R WCI  29
TRAVERSE CITY  CLOUDY    37  30  75 SW9       29.93R WCI  30
6HR MIN TEMP:  36; 6HR MAX TEMP:  38;

$$
MIZ007>008-015-260100-
EASTERN UPPER MICHIGAN

CITY           SKY/WX    TMP DP  RH WIND       PRES   REMARKS
KINROSS        MOCLDY    34  32  93 W7        29.86R WCI  28
6HR MIN TEMP:  34; 6HR MAX TEMP:  37;

MACKINAC ISLAN CLOUDY    36  34  94 SW10G18   29.88R WCI  28
6HR MIN TEMP:  35; 6HR MAX TEMP:  37;

NEWBERRY       CLOUDY    32  31  96 SW9       29.85R WCI  24
6HR MIN TEMP:  32; 6HR MAX TEMP:  35;

S. S. MARIE    CLOUDY    34  30  85 W8        29.83F WCI  27
6HR MIN TEMP:  34; 6HR MAX TEMP:  36;

MUNISING         N/A     37  29  72 S6        29.85R WCI  32
6HR MIN TEMP:  37; 6HR MAX TEMP:  39;

$$
MIZ004>006-011>014-085-260100-
CENTRAL UPPER MICHIGAN

CITY           SKY/WX    TMP DP  RH WIND       PRES   REMARKS
MANISTIQUE     CLOUDY    33  32  94 MISG      29.87R
6HR MIN TEMP:  33; 6HR MAX TEMP:  36;

ESCANABA       CLOUDY    34  28  80 SW7       29.87R WCI  28
6HR MIN TEMP:  34; 6HR MAX TEMP:  36;

MENOMINEE      CLOUDY    36  28  75 SW7       29.88R WCI  30
6HR MIN TEMP:  34; 6HR MAX TEMP:  36;

SAWYER-GWINN   CLOUDY    32  30  93 SW9       29.83R WCI  24
$$
MIZ001>003-009>011-084-260100-
WESTERN UPPER MICHIGAN

CITY           SKY/WX    TMP DP  RH WIND       PRES   REMARKS
IRON MOUNTAIN  CLOUDY    32  28  85 S3        29.84R
6HR MIN TEMP:  32; 6HR MAX TEMP:  34;

HOUGHTON       CLOUDY    33  28  81 W13       29.81R WCI  24
6HR MIN TEMP:  32; 6HR MAX TEMP:  33;

COPPER HARBOR    N/A     34  29  82 VRB7      29.81R WCI  28
6HR MIN TEMP:  34; 6HR MAX TEMP:  36;

IRONWOOD       CLOUDY    30  28  93 SW7       29.80R WCI  23
6HR MIN TEMP:  30; 6HR MAX TEMP:  32;

$$

ABBREVIATIONS USED IN REMARKS
   TC - TEMPERATURE IN CELSIUS
  WCI - WIND CHILL INDEX
   HX - HEAT INDEX
  VSB - VISIBILITY



USA.gov is the U.S. government's official web portal to all federal, state and local government web resources and services.